[[{"header":{"parameterUnit":"m.s-1","parameterCategory":1,"la1":30.2991,"la2":30.254,"lo1":-89.0895,"lo2":-89.0444,"dy":0.0017,"dx":0.0017,"nx":28,"ny":28,"refTime":"2025-01-12T03:00:00:Z","depth":0,"parameterNumber":2,"parameterNumberName":"U-component_of_WINDS"},"data":[0,0,0,0,0,0,0,0,0,0,0,0,0,0,0,0,0,0,0,0,0,0,0,0,0,0,0,0,0,0,0,0,0,0,0,0,0,0,0,0,0,0,0,0,0,0,0,0,0,0,0,0,0,0,0,0,0,0,-1.6271,-1.6272,0,-1.6391,-1.6392,-1.6394,-1.6379,-1.6377,-1.6375,-1.6373,-1.65,-1.6505,-1.651,0,0,0,0,0,0,0,0,0,0,0,0,0,-1.6031,-1.6036,-1.6271,-1.6272,-1.6274,-1.6391,-1.6392,-1.6394,-1.6379,-1.6377,-1.6375,-1.6372,-1.6498,-1.6504,-1.6511,0,0,0,0,0,0,0,0,0,0,0,0,0,-1.6142,-1.6037,-1.627,-1.628,-1.6282,-1.639,-1.6392,-1.6394,-1.638,-1.6377,-1.6374,-1.6371,-1.6496,-1.6504,-1.6511,-1.6618,0,0,-1.6535,-1.6539,0,0,0,0,0,0,0,0,-1.6136,-1.6151,-1.6277,-1.628,-1.6282,-1.6367,-1.6354,-1.647,-1.6381,-1.6343,-1.6373,-1.637,-1.6458,-1.6469,-1.6498,-1.6624,-1.663,-1.6536,-1.6541,-1.6544,-1.6546,0,0,0,0,0,0,0,-1.6128,-1.6145,-1.6318,-1.6279,-1.6282,-1.628,-1.6292,-1.6376,-1.6416,-1.6346,-1.6345,-1.6359,-1.6459,-1.6491,-1.6501,-1.6632,-1.6536,-1.6543,-1.6547,-1.6551,-1.6853,-1.6856,0,0,0,0,0,0,-1.6117,-1.6139,-1.6314,-1.6322,-1.62,-1.6286,-1.63,-1.6343,-1.6415,-1.6423,-1.6362,-1.6358,-1.6479,-1.6492,-1.6505,-1.6637,-1.6544,-1.6551,-1.6556,-1.685,-1.6854,-1.6857,0,0,0,0,0,0,-1.6112,-1.6133,-1.631,-1.623,-1.6253,-1.6294,-1.6341,-1.6347,-1.6378,-1.6427,-1.6434,-1.6387,-1.6477,-1.6494,-1.659,-1.6641,-1.6555,-1.6562,-1.6846,-1.6851,-1.6855,-1.69,0,0,0,0,0,0,-1.6105,-1.6131,-1.6172,-1.6231,-1.6257,-1.6392,-1.6344,-1.6351,-1.6391,-1.6388,-1.6452,-1.646,-1.6476,-1.6579,-1.6598,-1.665,-1.6568,-1.6841,-1.6848,-1.6854,-1.6894,-1.6905,-1.6915,0,0,0,0,0,-1.6097,-1.618,-1.6174,-1.6195,-1.6308,-1.6395,-1.641,-1.6426,-1.6395,-1.6437,-1.6468,-1.6458,-1.6631,-1.6589,-1.661,-1.6666,-1.6838,-1.6846,-1.6853,-1.6889,-1.6903,-1.6915,0,0,0,0,0,0,-1.6127,-1.6188,-1.6182,-1.6286,-1.6335,-1.6392,-1.6445,-1.644,-1.65,-1.6494,-1.6512,-1.6527,-1.6624,-1.6654,-1.6605,-1.6773,-1.6731,-1.6743,-1.6751,-1.6765,-1.6775,-1.6767,-1.6574,0,0,0,0,0,-1.6145,-1.6209,-1.626,-1.6347,-1.6372,-1.6404,-1.6443,-1.645,-1.6502,-1.6524,-1.6562,-1.6613,-1.668,-1.6723,-1.6787,-1.6897,-1.6912,-1.6945,-1.6956,-1.6965,-1.6976,-1.7038,-1.7054,-1.6882,-1.6882,-1.6882,0,0,-1.6184,-1.6226,-1.6265,-1.6354,-1.6393,-1.646,-1.6422,-1.6495,-1.6545,-1.6535,-1.6628,-1.6658,-1.6717,-1.6821,-1.6868,-1.6849,-1.7026,-1.6974,-1.6981,-1.6988,-1.7047,-1.7064,-1.7078,-1.6887,-1.6886,-1.6885,0,0,-1.6291,-1.6328,-1.6405,-1.6445,-1.6504,-1.6525,-1.6543,-1.6601,-1.662,-1.6713,-1.6707,-1.6768,-1.6881,-1.6924,-1.696,-1.7082,-1.7076,-1.7102,-1.716,-1.722,-1.7234,-1.7246,-1.7291,-1.7307,-1.7113,-1.7113,-1.7113,0,-1.6333,-1.6433,-1.6446,-1.652,-1.656,-1.6552,-1.6631,-1.6669,-1.6746,-1.6775,-1.6751,-1.6893,-1.6932,-1.7047,-1.7076,-1.7105,-1.7129,-1.7097,-1.723,-1.7243,-1.7254,-1.7298,-1.7315,-1.7116,-1.7116,-1.7115,-1.7115,0,-1.6483,-1.6553,-1.6608,-1.6682,-1.6728,-1.6804,-1.683,-1.6875,-1.6878,-1.6902,-1.6998,-1.7044,-1.7117,-1.7144,-1.7149,-1.726,-1.7246,-1.7226,-1.7184,-1.7274,-1.7315,-1.7332,-1.712,-1.7119,-1.7118,-1.7118,0,0,-1.6614,-1.6693,-1.6714,-1.6747,-1.6811,-1.6866,-1.6942,-1.7012,-1.7052,-1.7104,-1.717,-1.7266,-1.7248,-1.7289,-1.7298,-1.7351,-1.7447,-1.7325,-1.7326,-1.7348,-1.7574,-1.759,-1.7609,-1.7441,-1.7444,-1.7447,-1.757,0,-1.6729,-1.6863,-1.6876,-1.6997,-1.7062,-1.7055,-1.7121,-1.7168,-1.7192,-1.7252,-1.7278,-1.7347,-1.7316,-1.7342,-1.7393,-1.7424,-1.7493,-1.7415,-1.7505,-1.7508,-1.7493,-1.7631,-1.7649,-1.7762,-1.7586,-1.7589,-1.759,0,-1.6881,-1.6938,-1.7065,-1.712,-1.7148,-1.7207,-1.7273,-1.733,-1.7383,-1.7397,-1.7443,-1.7445,-1.7524,-1.7477,-1.7588,-1.7535,-1.7572,-1.7593,-1.7598,-1.7609,-1.7556,-1.7648,-1.7799,-1.7817,-1.7616,-1.7614,-1.7612,0,-1.6967,-1.7075,-1.7165,-1.7193,-1.726,-1.7302,-1.7331,-1.7382,-1.7423,-1.7481,-1.7509,-1.7575,-1.7612,-1.7664,-1.7684,-1.7648,-1.7795,-1.7749,-1.7811,-1.781,-1.7844,-1.7843,-1.8006,-1.7864,-1.7863,-1.7863,-1.7863,0,-1.7095,-1.7174,-1.7204,-1.726,-1.7348,-1.7362,-1.7449,-1.7477,-1.7522,-1.7584,-1.758,-1.7639,-1.7661,-1.7723,-1.7739,-1.783,-1.7846,-1.786,-1.7864,-1.7863,-1.7861,-1.7889,-1.7883,-1.7868,-1.7867,-1.7866,-1.7865,0,-1.7207,-1.723,-1.7329,-1.7382,-1.7398,-1.746,-1.7507,-1.7562,-1.7583,-1.7662,-1.7681,-1.7717,-1.779,-1.7814,-1.7903,-1.7914,-1.802,-1.8016,-1.8002,-1.8004,-1.8064,-1.8059,-1.8253,-1.8281,-1.8118,-1.812,-1.8121,0,-1.7289,-1.7349,-1.7409,-1.745,-1.7481,-1.7546,-1.7589,-1.7605,-1.7649,-1.7714,-1.7761,-1.7833,-1.7892,-1.8009,-1.8044,-1.8112,-1.8111,-1.8174,-1.8121,-1.8118,-1.8115,-1.8112,-1.8119,-1.8185,-1.8187,-1.8188,-1.8189,0,-1.7433,-1.7441,-1.7501,-1.7566,-1.7617,-1.7669,-1.7719,-1.7753,-1.7776,-1.7827,-1.7901,-1.7946,-1.8036,-1.8109,-1.8178,-1.8209,-1.8205,-1.8205,-1.8223,-1.8224,-1.8214,-1.8222,-1.8032,-1.8201,-1.82,-1.8199,-1.8199,-1.8198,-1.7534,-1.7587,-1.7638,-1.7706,-1.7745,-1.7792,-1.7846,-1.7874,-1.7936,-1.801,-1.8016,-1.8096,-1.8148,-1.8241,-1.8275,-1.8339,-1.8322,-1.8348,-1.8355,-1.8362,-1.8367,-1.8201,-1.8352,-1.8351,-1.8351,-1.8351,-1.835,0,-1.7679,-1.7711,-1.7773,-1.7843,-1.7897,-1.7885,-1.794,-1.7986,-1.8057,-1.8105,-1.8162,-1.8248,-1.8318,-1.8357,-1.8427,-1.8471,-1.8471,-1.8489,-1.8488,-1.8496,-1.8378,-1.8356,-1.8489,-1.8489,-1.8489,-1.8489,-1.8488,-1.8488,-1.7762,-1.7852,-1.7866,-1.7976,-1.8008,-1.8086,-1.8119,-1.8162,-1.8201,-1.8297,-1.8354,-1.8379,-1.8424,-1.8497,-1.8561,-1.8571,-1.8598,-1.8619,-1.8628,-1.8518,-1.8504,-1.849,-1.847,-1.8624,-1.8624,-1.874,-1.8741,-1.8742]},{"header":{"parameterUnit":"m.s-1","parameterCategory":1,"la1":30.2991,"la2":30.254,"lo1":-89.0895,"lo2":-89.0444,"dy":0.0017,"dx":0.0017,"nx":28,"ny":28,"refTime":"2025-01-12T03:00:00:Z","depth":0,"parameterNumber":3,"parameterNumberName":"V-component_of_WINDS"},"data":[0,0,0,0,0,0,0,0,0,0,0,0,0,0,0,0,0,0,0,0,0,0,0,0,0,0,0,0,0,0,0,0,0,0,0,0,0,0,0,0,0,0,0,0,0,0,0,0,0,0,0,0,0,0,0,0,0,0,-6.859,-6.8592,0,-6.8717,-6.8718,-6.8719,-6.8646,-6.8642,-6.8639,-6.8635,-6.8759,-6.8765,-6.8772,0,0,0,0,0,0,0,0,0,0,0,0,0,-6.8279,-6.8285,-6.859,-6.8592,-6.8593,-6.8716,-6.8718,-6.872,-6.8646,-6.8642,-6.8638,-6.8634,-6.8757,-6.8764,-6.8772,0,0,0,0,0,0,0,0,0,0,0,0,0,-6.8411,-6.8287,-6.859,-6.8572,-6.8571,-6.8716,-6.8718,-6.872,-6.8647,-6.8642,-6.8636,-6.8631,-6.8754,-6.8764,-6.8773,-6.8941,0,0,-6.8804,-6.8808,0,0,0,0,0,0,0,0,-6.8403,-6.8422,-6.8573,-6.8573,-6.8573,-6.866,-6.8654,-6.8794,-6.8649,-6.8618,-6.8635,-6.8629,-6.873,-6.8741,-6.8777,-6.8947,-6.8953,-6.8805,-6.8811,-6.8815,-6.8818,0,0,0,0,0,0,0,-6.8394,-6.8416,-6.864,-6.8575,-6.8575,-6.8555,-6.8568,-6.868,-6.8702,-6.862,-6.8615,-6.8632,-6.8729,-6.8767,-6.8779,-6.8954,-6.8804,-6.8813,-6.8819,-6.8823,-6.9268,-6.9274,0,0,0,0,0,0,-6.8387,-6.8409,-6.8636,-6.8644,-6.8474,-6.8565,-6.8579,-6.8637,-6.8701,-6.8705,-6.8636,-6.8628,-6.8753,-6.8767,-6.8783,-6.8984,-6.8815,-6.8824,-6.883,-6.9263,-6.927,-6.9276,0,0,0,0,0,0,-6.8381,-6.8408,-6.8631,-6.8525,-6.8552,-6.8576,-6.8642,-6.8643,-6.8681,-6.8713,-6.8716,-6.8672,-6.8749,-6.8769,-6.8903,-6.8987,-6.8829,-6.8838,-6.9256,-6.9265,-6.9273,-6.9388,0,0,0,0,0,0,-6.8372,-6.8407,-6.8472,-6.8527,-6.8558,-6.8751,-6.8647,-6.8649,-6.8699,-6.8689,-6.8747,-6.8751,-6.8747,-6.8889,-6.8913,-6.8998,-6.8845,-6.9248,-6.926,-6.927,-6.9377,-6.9399,-6.9419,0,0,0,0,0,-6.8362,-6.8498,-6.8476,-6.8504,-6.8641,-6.8756,-6.8773,-6.8767,-6.8706,-6.8771,-6.8792,-6.8749,-6.8974,-6.8903,-6.893,-6.9019,-6.9243,-6.9256,-6.9269,-6.9367,-6.9395,-6.9419,0,0,0,0,0,0,-6.845,-6.8505,-6.8481,-6.864,-6.8694,-6.8743,-6.8826,-6.8796,-6.8867,-6.8855,-6.8842,-6.8856,-6.8995,-6.902,-6.894,-6.9185,-6.9099,-6.9118,-6.9164,-6.9191,-6.9212,-6.9203,-6.8854,0,0,0,0,0,-6.8489,-6.858,-6.8621,-6.8758,-6.8786,-6.8802,-6.8851,-6.8842,-6.8896,-6.8918,-6.8948,-6.9001,-6.9084,-6.9138,-6.9216,-6.9379,-6.939,-6.9454,-6.9475,-6.9492,-6.9509,-6.9597,-6.9626,-6.9319,-6.9319,-6.9319,0,0,-6.8568,-6.8609,-6.8667,-6.8777,-6.8817,-6.891,-6.8821,-6.8923,-6.8991,-6.8933,-6.9062,-6.9086,-6.9144,-6.9294,-6.9361,-6.9319,-6.9596,-6.9509,-6.9523,-6.953,-6.9614,-6.9643,-6.9669,-6.9328,-6.9327,-6.9325,0,0,-6.8761,-6.8802,-6.892,-6.8963,-6.9027,-6.9036,-6.9064,-6.9118,-6.9132,-6.9262,-6.922,-6.93,-6.9442,-6.9485,-6.9526,-6.9735,-6.9699,-6.976,-6.9871,-6.9957,-6.9982,-7.0003,-7.0078,-7.0105,-6.9777,-6.9777,-6.9777,0,-6.8852,-6.8992,-6.8983,-6.9089,-6.9138,-6.9092,-6.921,-6.9251,-6.9336,-6.937,-6.9322,-6.95,-6.9536,-6.9695,-6.9746,-6.978,-6.9811,-6.9754,-6.9979,-7.0,-7.002,-7.0091,-7.0119,-6.9784,-6.9783,-6.9783,-6.9782,0,-6.91,-6.9198,-6.9285,-6.9371,-6.9429,-6.954,-6.9547,-6.9607,-6.9592,-6.9606,-6.9737,-6.9779,-6.9864,-6.9901,-6.9886,-7.0058,-7.003,-6.9981,-6.9894,-7.0057,-7.0123,-7.015,-6.9794,-6.9792,-6.979,-6.9788,0,0,-6.9353,-6.9433,-6.9466,-6.9504,-6.957,-6.9645,-6.9753,-6.9838,-6.989,-6.9949,-7.0039,-7.0161,-7.0116,-7.0162,-7.0152,-7.0227,-7.039,-7.0168,-7.0169,-7.0209,-7.0581,-7.0619,-7.065,-7.0366,-7.0371,-7.0375,-7.0577,0,-6.9551,-6.9743,-6.9739,-6.9917,-7.0006,-6.9963,-7.0057,-7.0107,-7.0123,-7.0199,-7.0214,-7.0301,-7.0235,-7.0263,-7.0336,-7.0355,-7.0465,-7.034,-7.0448,-7.0452,-7.0437,-7.0685,-7.0725,-7.0913,-7.0602,-7.0607,-7.061,0,-6.9807,-6.9878,-7.0066,-7.0119,-7.0157,-7.0242,-7.032,-7.0394,-7.0449,-7.0454,-7.0506,-7.0484,-7.0592,-7.0502,-7.065,-7.0565,-7.0609,-7.0625,-7.0632,-7.0642,-7.0542,-7.0703,-7.0973,-7.1002,-7.0651,-7.0648,-7.0645,0,-6.9974,-7.0116,-7.0247,-7.028,-7.0346,-7.0407,-7.0436,-7.0486,-7.0538,-7.0604,-7.0638,-7.0715,-7.0758,-7.0818,-7.0816,-7.0751,-7.0966,-7.0876,-7.0973,-7.0973,-7.1021,-7.1018,-7.1303,-7.1048,-7.1048,-7.1047,-7.1047,0,-7.0196,-7.0313,-7.0322,-7.0403,-7.0532,-7.0524,-7.0651,-7.0674,-7.0719,-7.0802,-7.0767,-7.0845,-7.0838,-7.0917,-7.0915,-7.1038,-7.1057,-7.1064,-7.1063,-7.1068,-7.1067,-7.1097,-7.1084,-7.1055,-7.1053,-7.1052,-7.105,0,-7.0405,-7.0416,-7.0556,-7.0607,-7.0622,-7.0715,-7.0757,-7.0832,-7.0844,-7.095,-7.0974,-7.0992,-7.1082,-7.1087,-7.119,-7.1189,-7.1338,-7.1322,-7.1321,-7.1318,-7.1415,-7.1406,-7.173,-7.1771,-7.1489,-7.1492,-7.1494,0,-7.0546,-7.0635,-7.0696,-7.075,-7.0784,-7.0871,-7.0924,-7.0919,-7.0975,-7.1044,-7.1111,-7.1198,-7.1268,-7.1414,-7.1435,-7.1514,-7.1499,-7.1607,-7.151,-7.1513,-7.1501,-7.1496,-7.1505,-7.1626,-7.1629,-7.1631,-7.1633,0,-7.0796,-7.0797,-7.0876,-7.0957,-7.1022,-7.1084,-7.1143,-7.1188,-7.119,-7.1254,-7.1347,-7.1401,-7.1507,-7.1594,-7.1671,-7.1698,-7.1667,-7.1664,-7.169,-7.1697,-7.1693,-7.1697,-7.1373,-7.1656,-7.1654,-7.1652,-7.1651,-7.165,-7.0976,-7.1053,-7.1108,-7.1197,-7.124,-7.1296,-7.137,-7.1391,-7.147,-7.1557,-7.1548,-7.1652,-7.1703,-7.1802,-7.1836,-7.1915,-7.1878,-7.1917,-7.1927,-7.1937,-7.1947,-7.168,-7.1929,-7.1928,-7.1928,-7.1927,-7.1927,0,-7.1224,-7.1258,-7.134,-7.1423,-7.1493,-7.1458,-7.1521,-7.158,-7.1672,-7.1724,-7.1794,-7.19,-7.1984,-7.2012,-7.2093,-7.215,-7.2138,-7.2172,-7.2168,-7.2175,-7.1976,-7.1945,-7.2181,-7.2181,-7.2181,-7.2181,-7.2181,-7.2181,-7.1362,-7.1491,-7.1499,-7.1649,-7.168,-7.1783,-7.1822,-7.1872,-7.1913,-7.2034,-7.2105,-7.2123,-7.2164,-7.2248,-7.2323,-7.2328,-7.236,-7.2401,-7.24,-7.2214,-7.2189,-7.2164,-7.2135,-7.2407,-7.2408,-7.2593,-7.2594,-7.2596]}]]